Weather History for Fryeburg, ME

Change the Weather History Date:

Tuesday, January 29, 2013

  Actual Average Record
Temperature  
Mean Temperature 16 °F -  
Max Temperature 30 °F 28 °F 43 °F (1998)
Min Temperature 3 °F 4 °F -17 °F (2000)
Degree Days  
Heating Degree Days 48    
Moisture  
Dew Point 20 °F    
Average Humidity 87    
Maximum Humidity 96    
Minimum Humidity 69    
Precipitation  
Precipitation 0.02 in - - ()
Sea Level Pressure  
Sea Level Pressure 30.15 in    
Wind  
Wind Speed 0 mph (NNE)    
Max Wind Speed 4 mph    
Max Gust Speed -    
Visibility 8 miles    
Events Rain , Snow    
Averages and records for this station are not official NWS values.
T = Trace of Precipitation, MM = Missing Value Source: NWS Daily Summary

Daily Weather History Graph

Daily Weather History Graph

Search for Another Location

Airport:

Trip Planner

Search our weather history database for the weather conditions in past years. The results will help you decide how hot, cold, wet, or windy it might be!

Date:

Astronomy

Jan. 29, 2013 Rise Set
Actual Time 7:04 AM EST 4:50 PM EST
Civil Twilight 6:33 AM EST 5:21 PM EST
Nautical Twilight 5:58 AM EST 5:56 PM EST
Astronomical Twilight 5:24 AM EST 6:29 PM EST
Moon 7:51 PM EST (1/29) 7:52 AM EST (1/29)
Length of Visible Light 10h 48m
Length of Day
9h 46m
Waning Gibbous, 94% of the Moon is Illuminated
Jan 29
Waning Gibbous
Feb 3
Last Quarter
Feb 10
New
Feb 17
First Quarter
Feb 25
Full

Hourly Weather History & Observations

Time (EST) Temp. Windchill Dew Point Humidity Pressure Visibility Wind Dir Wind Speed Gust Speed Precip Events Conditions
12:00 AM 17.6 °F - 15.8 °F 93% 30.06 in 1.8 mi Calm Calm - 0.00 in Snow Light Snow
12:16 AM 17.6 °F - 15.8 °F 93% 30.05 in 3.0 mi Calm Calm - 0.00 in Snow Light Snow
12:54 AM 18.0 °F - 15.1 °F 88% 30.08 in 5.0 mi Calm Calm - 0.01 in Snow Light Snow
1:54 AM 18.0 °F - 15.1 °F 88% 30.09 in 10.0 mi Calm Calm - 0.00 in   Overcast
2:54 AM 14.0 °F - 12.0 °F 92% 30.09 in 10.0 mi Calm Calm - 0.00 in   Mostly Cloudy
3:54 AM 10.0 °F - 8.1 °F 92% 30.09 in 10.0 mi Calm Calm - 0.00 in   Clear
4:54 AM 7.0 °F - 3.9 °F 87% 30.10 in 10.0 mi Calm Calm - N/A   Clear
5:54 AM 3.9 °F - 1.0 °F 88% 30.13 in 10.0 mi Calm Calm - N/A   Clear
7:54 AM 5.0 °F - 3.0 °F 92% 30.16 in 10.0 mi Calm Calm - N/A   Clear
8:54 AM 12.9 °F - 12.0 °F 96% 30.19 in 10.0 mi Calm Calm - N/A   Clear
9:54 AM 19.0 °F - 14.0 °F 81% 30.20 in 10.0 mi Calm Calm - 0.00 in   Clear
10:54 AM 24.1 °F 19.7 °F 16.0 °F 71% 30.20 in 10.0 mi NNE 3.5 mph - 0.00 in   Clear
11:54 AM 27.0 °F - 18.0 °F 69% 30.19 in 10.0 mi Calm Calm - 0.00 in   Clear
12:54 PM 28.0 °F - 19.0 °F 69% 30.17 in 10.0 mi Calm Calm - 0.00 in   Clear
1:54 PM 28.9 °F 25.2 °F 21.0 °F 72% 30.17 in 10.0 mi ENE 3.5 mph - 0.00 in   Clear
2:54 PM 30.0 °F - 21.9 °F 72% 30.14 in 10.0 mi Calm Calm - N/A   Clear
3:54 PM 30.0 °F 26.5 °F 21.9 °F 72% 30.17 in 10.0 mi NW 3.5 mph - N/A   Clear
4:54 PM 28.0 °F - 21.9 °F 78% 30.19 in 10.0 mi Calm Calm - N/A   Partly Cloudy
5:54 PM 26.1 °F - 23.0 °F 88% 30.20 in 10.0 mi Calm Calm - N/A   Scattered Clouds
6:01 PM 26.6 °F - 24.8 °F 93% 30.16 in 10.0 mi Calm Calm - N/A   Mostly Cloudy
6:54 PM 27.0 °F - 24.1 °F 89% 30.19 in 10.0 mi Calm Calm - N/A   Overcast
7:54 PM 27.0 °F - 24.1 °F 89% 30.19 in 10.0 mi Calm Calm - N/A   Overcast
8:05 PM 28.4 °F - 24.8 °F 86% 30.15 in 10.0 mi Calm Calm - N/A   Overcast
8:54 PM 28.0 °F - 25.0 °F 88% 30.18 in 10.0 mi Calm Calm - N/A   Overcast
9:54 PM 28.0 °F - 26.1 °F 92% 30.18 in 10.0 mi Calm Calm - N/A   Overcast
10:12 PM 28.4 °F - 26.6 °F 93% 30.15 in 10.0 mi Calm Calm - 0.00 in   Overcast
10:47 PM 30.2 °F - 28.4 °F 93% 30.14 in 4.0 mi Calm Calm - 0.00 in Rain Light Freezing Rain
10:54 PM 30.0 °F - 28.9 °F 96% 30.16 in 3.0 mi Calm Calm - 0.00 in Rain Light Freezing Rain
11:20 PM 30.2 °F - 28.4 °F 93% 30.13 in 4.0 mi Calm Calm - 0.01 in Rain Light Freezing Rain
11:36 PM 30.2 °F - 28.4 °F 93% 30.12 in 3.0 mi Calm Calm - 0.01 in   Overcast
11:51 PM 30.2 °F - 28.4 °F 93% 30.13 in 2.5 mi Calm Calm - 0.01 in   Overcast
11:54 PM 30.0 °F - 28.9 °F 96% 30.15 in 2.5 mi Calm Calm - 0.01 in   Overcast